This is the latest recevied weather packets stored in our database for station/object WX6YYZ. If no packets are shown the sender has not sent any weather packets the latest 10 day(s).
| Time | Temp. | Humidity | Pressure | Rain* | Wind** | Luminosity | Snow |
|---|---|---|---|---|---|---|---|
| 1777333174 | 18.33° C | 42% | 1015.6 hPa | 0 mm | - | - | - |
| 1777330657 | 18.89° C | 38% | 1015.6 hPa | 0 mm | - | - | - |
| 1777328545 | 19.44° C | 39% | 1015.9 hPa | 0 mm | - | - | - |
| 1777326405 | 18.89° C | 42% | 1016.6 hPa | 0 mm | - | - | - |
| 1777324898 | 17.78° C | 43% | 1016.6 hPa | 0 mm | - | - | - |
| 1777322759 | 16.67° C | 49% | 1017.3 hPa | 0 mm | - | - | - |
| 1777322127 | 17.22° C | 47% | 1016.9 hPa | 0 mm | - | - | - |
| 1777320864 | 17.78° C | 46% | 1016.9 hPa | 0 mm | - | - | - |
| 1777320563 | 17.78° C | 44% | 1016.9 hPa | 0 mm | - | - | - |
| 1777317790 | 16.67° C | 50% | 1017.3 hPa | 0 mm | - | - | - |
| 1777316886 | 16.11° C | 50% | 1017.3 hPa | 0 mm | - | - | - |
| 1777316253 | 17.22° C | 46% | 1017.3 hPa | 0 mm | - | - | - |
| 1777315287 | 17.22° C | 47% | 1017.3 hPa | 0 mm | - | - | - |
| 1777314685 | 16.67° C | 48% | 1017.3 hPa | 0 mm | - | - | - |
| 1777313782 | 15.56° C | 50% | 1017.3 hPa | 0 mm | - | - | - |
| 1777312579 | 15° C | 53% | 1017.3 hPa | 0 mm | - | - | - |
| 1777312278 | 15° C | 51% | 1017.3 hPa | 0 mm | - | - | - |
| 1777310711 | 14.44° C | 49% | 1017.3 hPa | 0 mm | - | - | - |
| 1777310410 | 15° C | 50% | 1017.3 hPa | 0 mm | - | - | - |
| 1777309809 | 15° C | 47% | 1016.9 hPa | 0 mm | - | - | - |
| 1777308844 | 14.44° C | 46% | 1016.9 hPa | 0 mm | - | - | - |
| 1777306121 | 13.89° C | 73% | 1016.6 hPa | 0 mm | - | - | - |
| 1777303951 | 13.33° C | 76% | 1016.6 hPa | 0 mm | - | - | - |
| 1777303318 | 12.78° C | 77% | 1016.6 hPa | 0 mm | - | - | - |
| 1777301148 | 12.22° C | 80% | 1016.6 hPa | 0 mm | - | - | - |
* Rain latest hour (hover to see other rain measurements)
** Current wind speed in m/s (hover to see current wind gust speed)